CW5791 Weather Reports


Display with metric or nautical units.
time (UTC)temp
F
wind
direction
speed
MPH
gust
MPH
rain 1hr
in
rain 24hr
in
rain mn
in
humidity
%
barometer
mb
20210923233618 68 0.0 0.0 0.00 0.00 0.00 54 1014.0
20210923233119 68 0.0 0.0 0.00 0.00 0.00 54 1014.1
20210923232618 69 0.0 0.0 0.00 0.00 0.00 53 1014.1
20210923232118 69 0.0 0.0 0.00 0.00 0.00 52 1014.2
20210923231618 69 0.0 0.0 0.00 0.00 0.00 52 1014.2
20210923231119 69 0.0 0.0 0.00 0.00 0.00 51 1014.2
20210923230619 69 0.0 0.0 0.00 0.00 0.00 49 1014.1
20210923230119 70 0.0 0.0 0.00 0.00 0.00 49 1014.0
20210923225619 70 0.0 0.0 0.00 0.00 0.00 48 1014.0
20210923225118 70 0.0 0.0 0.00 0.00 0.00 46 1014.1
20210923224618 70 0.0 0.0 0.00 0.00 0.00 47 1014.1
20210923224118 70 0.0 0.0 0.00 0.00 0.00 45 1014.2
20210923223619 70 0.0 0.0 0.00 0.00 0.00 43 1014.1
20210923223119 70 0.0 0.0 0.00 0.00 0.00 43 1014.2
20210923222617 70 0.0 0.0 0.00 0.00 0.00 44 1014.2
20210923222117 71 0.0 0.0 0.00 0.00 0.00 45 1014.2
20210923221616 71 0.0 0.0 0.00 0.00 0.00 45 1014.3
20210923221117 71 0.0 0.0 0.00 0.00 0.00 44 1014.4
20210923220618 71 0.0 0.0 0.00 0.00 0.00 43 1014.4
20210923220117 71 0.0 0.0 0.00 0.00 0.00 43 1014.4
20210923215616 71 0.0 0.0 0.00 0.00 0.00 42 1014.4
20210923215119 71 0.0 0.0 0.00 0.00 0.00 42 1014.5
20210923214617 71 0.0 0.0 0.00 0.00 0.00 45 1014.5
20210923214118 71 0.0 0.0 0.00 0.00 0.00 45 1014.5
20210923213619 71 0.0 0.0 0.00 0.00 0.00 42 1014.5
20210923213119 71 0.0 0.0 0.00 0.00 0.00 40 1014.6
20210923212616 71 0.0 0.0 0.00 0.00 0.00 42 1014.6
20210923212117 71 0.0 0.0 0.00 0.00 0.00 40 1014.6
20210923211610 71 0.0 0.0 0.00 0.00 0.00 43 1014.8
20210923211102 71 0.0 0.0 0.00 0.00 0.00 43 1014.8
20210923210600 71 0.0 0.0 0.00 0.00 0.00 42 1014.9
20210923210057 71 0.0 0.0 0.00 0.00 0.00 41 1014.8
20210923205546 71 0.0 0.0 0.00 0.00 0.00 41 1014.9
20210923205043 71 0.0 0.0 0.00 0.00 0.00 42 1015.0
20210923204541 71 0.0 0.0 0.00 0.00 0.00 45 1015.1
20210923204033 71 0.0 0.0 0.00 0.00 0.00 42 1015.2
20210923203526 71 0.0 0.0 0.00 0.00 0.00 43 1015.3
20210923203023 71 0.0 0.0 0.00 0.00 0.00 42 1015.3
20210923202518 71 0.0 0.0 0.00 0.00 0.00 41 1015.3
20210923202019 71 0.0 0.0 0.00 0.00 0.00 42 1015.5
20210923201518 71 0.0 0.0 0.00 0.00 0.00 42 1015.7
20210923201019 71 0.0 0.0 0.00 0.00 0.00 44 1015.7
20210923200518 71 0.0 0.0 0.00 0.00 0.00 43 1015.8
20210923200018 71 0.0 0.0 0.00 0.00 0.00 44 1015.9
20210923195519 71 0.0 0.0 0.00 0.00 0.00 43 1016.0
20210923195019 71 0.0 0.0 0.00 0.00 0.00 43 1016.1
20210923194519 71 0.0 0.0 0.00 0.00 0.00 46 1016.3
20210923194019 71 0.0 0.0 0.00 0.00 0.00 45 1016.4
20210923193459 71 0.0 0.0 0.00 0.00 0.00 45 1016.4
20210923192956 70 0.0 0.0 0.00 0.00 0.00 46 1016.6
20210923192453 70 0.0 0.0 0.00 0.00 0.00 43 1016.7
20210923192005 70 0.0 0.0 0.00 0.00 0.00 45 1016.7
20210923191503 70 0.0 0.0 0.00 0.00 0.00 44 1016.8
20210923190947 70 0.0 0.0 0.00 0.00 0.00 46 1016.9
20210923190445 70 0.0 0.0 0.00 0.00 0.00 46 1017.0
20210923185941 70 0.0 0.0 0.00 0.00 0.00 45 1017.1
20210923185440 70 0.0 0.0 0.00 0.00 0.00 46 1017.3
20210923184937 70 0.0 0.0 0.00 0.00 0.00 47 1017.3
20210923184435 70 0.0 0.0 0.00 0.00 0.00 46 1017.3
20210923183932 70 0.0 0.0 0.00 0.00 0.00 46 1017.3
20210923183431 70 0.0 0.0 0.00 0.00 0.00 45 1017.4
20210923182933 70 0.0 0.0 0.00 0.00 0.00 49 1017.4
20210923182433 70 0.0 0.0 0.00 0.00 0.00 47 1017.6
20210923181932 69 0.0 0.0 0.00 0.00 0.00 48 1017.7
20210923181431 69 0.0 0.0 0.00 0.00 0.00 47 1017.7
20210923180929 69 0.0 0.0 0.00 0.00 0.00 50 1017.9
20210923180427 69 0.0 0.0 0.00 0.00 0.00 50 1017.9
20210923175924 69 0.0 0.0 0.00 0.00 0.00 54 1017.9
20210923175423 69 0.0 0.0 0.00 0.00 0.00 50 1018.0
20210923174919 69 0.0 0.0 0.00 0.00 0.00 51 1018.0
20210923174407 69 0.0 0.0 0.00 0.00 0.00 49 1018.1
20210923173920 69 0.0 0.0 0.00 0.00 0.00 50 1018.2
20210923173418 68 0.0 0.0 0.00 0.00 0.00 49 1018.1
20210923172916 68 0.0 0.0 0.00 0.00 0.00 55 1018.4
20210923172412 68 0.0 0.0 0.00 0.00 0.00 53 1018.4
20210923171910 67 0.0 0.0 0.00 0.00 0.00 52 1018.5
20210923171405 67 0.0 0.0 0.00 0.00 0.00 54 1018.6
20210923170904 67 0.0 0.0 0.00 0.00 0.00 56 1018.6
20210923170404 67 0.0 0.0 0.00 0.00 0.00 58 1018.7
20210923165918 67 0.0 0.0 0.00 0.00 0.00 59 1018.8
20210923165407 66 0.0 0.0 0.00 0.00 0.00 56 1018.8
20210923164904 66 0.0 0.0 0.00 0.00 0.00 55 1018.9
20210923164403 66 0.0 0.0 0.00 0.00 0.00 59 1019.2
20210923163903 65 0.0 0.0 0.00 0.00 0.00 58 1019.3
20210923163403 65 0.0 0.0 0.00 0.00 0.00 60 1019.4
20210923162902 65 0.0 0.0 0.00 0.00 0.00 57 1019.5
20210923162403 65 0.0 0.0 0.00 0.00 0.00 61 1019.5
20210923161903 64 0.0 0.0 0.00 0.00 0.00 57 1019.5
20210923161403 64 0.0 0.0 0.00 0.00 0.00 58 1019.6
20210923160900 64 0.0 0.0 0.00 0.00 0.00 62 1019.6
20210923160359 64 0.0 0.0 0.00 0.00 0.00 62 1019.6
20210923155855 63 0.0 0.0 0.00 0.00 0.00 62 1019.6
20210923155353 63 0.0 0.0 0.00 0.00 0.00 63 1019.5
20210923154850 63 0.0 0.0 0.00 0.00 0.00 62 1019.6
20210923154404 63 0.0 0.0 0.00 0.00 0.00 66 1019.6
20210923153846 62 0.0 0.0 0.00 0.00 0.00 67 1019.7
20210923153339 61 0.0 0.0 0.00 0.00 0.00 69 1019.6
20210923152837 60 0.0 0.0 0.00 0.00 0.00 72 1019.8
20210923152332 59 0.0 0.0 0.00 0.00 0.00 69 1019.7
20210923151832 59 0.0 0.0 0.00 0.00 0.00 74 1019.8
20210923151332 58 0.0 0.0 0.00 0.00 0.00 77 1019.9
20210923150832 58 0.0 0.0 0.00 0.00 0.00 77 1019.9
20210923150330 58 0.0 0.0 0.00 0.00 0.00 78 1019.8
20210923145826 58 0.0 0.0 0.00 0.00 0.00 78 1020.0
20210923145324 58 0.0 0.0 0.00 0.00 0.00 79 1020.0
20210923144836 56 0.0 0.0 0.00 0.00 0.00 80 1020.0
20210923144320 54 0.0 0.0 0.00 0.00 0.00 85 1020.1
20210923143819 54 0.0 0.0 0.00 0.00 0.00 86 1020.0
20210923143314 53 0.0 0.0 0.00 0.00 0.00 87 1020.0
20210923142812 53 0.0 0.0 0.00 0.00 0.00 89 1020.1
20210923142310 52 0.0 0.0 0.00 0.00 0.00 91 1020.1
20210923141808 51 0.0 0.0 0.00 0.00 0.00 91 1020.1
20210923141307 51 0.0 0.0 0.00 0.00 0.00 92 1020.2
20210923140806 51 0.0 0.0 0.00 0.00 0.00 92 1020.2
20210923140305 50 0.0 0.0 0.00 0.00 0.00 92 1020.3
20210923135820 50 0.0 0.0 0.00 0.00 0.00 93 1020.2
20210923135320 49 0.0 0.0 0.00 0.00 0.00 93 1020.2
20210923134820 49 0.0 0.0 0.00 0.00 0.00 93 1020.3
20210923134320 49 0.0 0.0 0.00 0.00 0.00 93 1020.2
20210923133821 48 0.0 0.0 0.00 0.00 0.00 93 1020.2
20210923133320 48 0.0 0.0 0.00 0.00 0.00 92 1020.2
20210923132819 48 0.0 0.0 0.00 0.00 0.00 92 1020.3
20210923132320 47 0.0 0.0 0.00 0.00 0.00 92 1020.3
20210923131805 47 0.0 0.0 0.00 0.00 0.00 92 1020.3
20210923131304 47 0.0 0.0 0.00 0.00 0.00 91 1020.3
20210923130804 47 0.0 0.0 0.00 0.00 0.00 91 1020.3
20210923130304 47 0.0 0.0 0.00 0.00 0.00 91 1020.3
20210923125805 47 0.0 0.0 0.00 0.00 0.00 91 1020.2
20210923125306 47 0.0 0.0 0.00 0.00 0.00 91 1020.2
20210923124804 47 0.0 0.0 0.00 0.00 0.00 91 1020.2
20210923124304 47 0.0 0.0 0.00 0.00 0.00 91 1020.1
20210923123805 47 0.0 0.0 0.00 0.00 0.00 91 1020.1
20210923123320 47 0.0 0.0 0.00 0.00 0.00 91 1020.1
20210923122819 47 0.0 0.0 0.00 0.00 0.00 91 1020.1
20210923122318 47 0.0 0.0 0.00 0.00 0.00 91 1020.2
20210923121804 47 0.0 0.0 0.00 0.00 0.00 91 1020.1
20210923121305 47 0.0 0.0 0.00 0.00 0.00 91 1020.1
20210923120804 47 0.0 0.0 0.00 0.00 0.00 91 1020.1
20210923120302 47 0.0 0.0 0.00 0.00 0.00 91 1020.0
20210923115817 47 0.0 0.0 0.00 0.00 0.00 91 1020.1
20210923115317 47 0.0 0.0 0.00 0.00 0.00 91 1020.2
20210923114816 48 0.0 0.0 0.00 0.00 0.00 91 1020.1
20210923114314 48 0.0 0.0 0.00 0.00 0.00 90 1020.0
20210923113802 48 0.0 0.0 0.00 0.00 0.00 90 1020.1
20210923113302 48 0.0 0.0 0.00 0.00 0.00 90 1020.0
20210923112802 48 0.0 0.0 0.00 0.00 0.00 90 1020.1
20210923112317 48 0.0 0.0 0.00 0.00 0.00 91 1020.1
20210923111816 48 0.0 0.0 0.00 0.00 0.00 91 1020.0
20210923111317 48 0.0 0.0 0.00 0.00 0.00 91 1020.1
20210923110817 48 0.0 0.0 0.00 0.00 0.00 91 1020.1
20210923110316 48 0.0 0.0 0.00 0.00 0.00 91 1020.2
20210923105817 48 0.0 0.0 0.00 0.00 0.00 90 1020.1
20210923105318 48 0.0 0.0 0.00 0.00 0.00 90 1020.1
20210923104817 48 0.0 0.0 0.00 0.00 0.00 90 1020.2
20210923104317 48 0.0 0.0 0.00 0.00 0.00 90 1020.2
20210923103817 48 0.0 0.0 0.00 0.00 0.00 90 1020.2
20210923103317 48 0.0 0.0 0.00 0.00 0.00 90 1020.2
20210923102817 48 0.0 0.0 0.00 0.00 0.00 90 1020.2
20210923102317 48 0.0 0.0 0.00 0.00 0.00 90 1020.3
20210923101819 48 0.0 0.0 0.00 0.00 0.00 90 1020.2
20210923101317 48 0.0 0.0 0.00 0.00 0.00 90 1020.2
20210923100819 48 0.0 0.0 0.00 0.00 0.00 90 1020.3
20210923100317 48 0.0 0.0 0.00 0.00 0.00 90 1020.2
20210923095818 48 0.0 0.0 0.00 0.00 0.00 90 1020.3
20210923095317 48 0.0 0.0 0.00 0.00 0.00 90 1020.3
20210923094817 48 0.0 0.0 0.00 0.00 0.00 90 1020.3
20210923094318 48 0.0 0.0 0.00 0.00 0.00 90 1020.4
20210923093817 49 0.0 0.0 0.00 0.00 0.00 90 1020.3
20210923093314 49 0.0 0.0 0.00 0.00 0.00 90 1020.2
20210923092810 49 0.0 0.0 0.00 0.00 0.00 90 1020.4
20210923092307 49 0.0 0.0 0.00 0.00 0.00 90 1020.4
20210923091801 49 0.0 0.0 0.00 0.00 0.00 90 1020.4
20210923091302 49 0.0 0.0 0.00 0.00 0.00 90 1020.5
20210923090802 49 0.0 0.0 0.00 0.00 0.00 90 1020.5
20210923090302 49 0.0 0.0 0.00 0.00 0.00 90 1020.6
20210923085816 49 0.0 0.0 0.00 0.00 0.00 90 1020.6
20210923085317 49 0.0 0.0 0.00 0.00 0.00 90 1020.6
20210923084817 49 0.0 0.0 0.00 0.00 0.00 90 1020.6
20210923084317 49 0.0 0.0 0.00 0.00 0.00 90 1020.6
20210923083817 49 0.0 0.0 0.00 0.00 0.00 90 1020.7
20210923083316 49 0.0 0.0 0.00 0.00 0.00 89 1020.7
20210923082818 49 0.0 0.0 0.00 0.00 0.00 89 1020.8
20210923082317 49 0.0 0.0 0.00 0.00 0.00 89 1020.7
20210923081817 49 0.0 0.0 0.00 0.00 0.00 89 1020.8
20210923081317 49 0.0 0.0 0.00 0.00 0.00 89 1020.7
20210923080821 49 0.0 0.0 0.00 0.00 0.00 89 1020.9
20210923080317 49 0.0 0.0 0.00 0.00 0.00 89 1020.7
20210923075816 49 0.0 0.0 0.00 0.00 0.00 89 1020.7
20210923075305 49 0.0 0.0 0.00 0.00 0.00 89 1020.9
20210923074801 49 0.0 0.0 0.00 0.00 0.00 89 1020.8
20210923074301 49 0.0 0.0 0.00 0.00 0.00 89 1020.9
20210923073801 49 0.0 0.0 0.00 0.00 0.00 89 1020.9
20210923073301 49 0.0 0.0 0.00 0.00 0.00 89 1020.9
20210923072803 49 0.0 0.0 0.00 0.00 0.00 89 1020.9
20210923072317 49 0.0 0.0 0.00 0.00 0.00 89 1021.0
20210923071818 49 0.0 0.0 0.00 0.00 0.00 89 1021.0
20210923071317 49 0.0 0.0 0.00 0.00 0.00 89 1021.0
20210923070818 49 0.0 0.0 0.00 0.00 0.00 89 1021.0
20210923070317 49 0.0 0.0 0.00 0.00 0.00 89 1021.1
20210923065817 49 0.0 0.0 0.00 0.00 0.00 89 1021.1
20210923065317 49 0.0 0.0 0.00 0.00 0.00 89 1021.1
20210923064818 49 0.0 0.0 0.00 0.00 0.00 88 1021.1
20210923064317 49 0.0 0.0 0.00 0.00 0.00 88 1021.1
20210923063817 49 0.0 0.0 0.00 0.00 0.00 88 1021.2
20210923063317 49 0.0 0.0 0.00 0.00 0.00 88 1021.2
20210923062817 49 0.0 0.0 0.00 0.00 0.00 88 1021.1
20210923062317 49 0.0 0.0 0.00 0.00 0.00 88 1021.1
20210923061818 49 0.0 0.0 0.00 0.00 0.00 88 1021.3
20210923061318 49 0.0 0.0 0.00 0.00 0.00 88 1021.3
20210923060818 50 0.0 0.0 0.00 0.00 0.00 88 1021.4
20210923060316 50 0.0 0.0 0.00 0.00 0.00 87 1021.4
20210923055818 50 0.0 0.0 0.00 0.00 0.00 87 1021.5
20210923055317 50 0.0 0.0 0.00 0.00 0.00 87 1021.5
20210923054817 50 0.0 0.0 0.00 0.00 0.00 87 1021.5
20210923054317 50 0.0 0.0 0.00 0.00 0.00 87 1021.6
20210923053817 50 0.0 0.0 0.00 0.00 0.00 87 1021.6
20210923053317 50 0.0 0.0 0.00 0.00 0.00 86 1021.6
20210923052817 50 0.0 0.0 0.00 0.00 0.00 86 1021.8
20210923052314 50 0.0 0.0 0.00 0.00 0.00 86 1021.7
20210923051803 50 0.0 0.0 0.00 0.00 0.00 86 1021.7
20210923051302 51 0.0 0.0 0.00 0.00 0.00 86 1021.8
20210923050805 51 0.0 0.0 0.00 0.00 0.00 86 1021.8
20210923050316 51 0.0 0.0 0.00 0.00 0.00 86 1021.8
20210923045818 51 0.0 0.0 0.00 0.00 0.00 86 1021.9
20210923045318 51 0.0 0.0 0.00 0.00 0.00 86 1021.9
20210923044816 51 0.0 0.0 0.00 0.00 0.00 86 1022.0
20210923044313 51 0.0 0.0 0.00 0.00 0.00 85 1022.0
20210923043802 51 0.0 0.0 0.00 0.00 0.00 85 1022.0
20210923043302 51 0.0 0.0 0.00 0.00 0.00 85 1022.2
20210923042802 51 0.0 0.0 0.00 0.00 0.00 85 1022.3
20210923042305 51 0.0 0.0 0.00 0.00 0.00 85 1022.2
20210923041802 51 0.0 0.0 0.00 0.00 0.00 85 1022.3
20210923041303 51 0.0 0.0 0.00 0.00 0.00 85 1022.2
20210923040803 51 0.0 0.0 0.00 0.00 0.00 85 1022.2
20210923040303 52 0.0 0.0 0.00 0.00 0.00 84 1022.2
20210923035817 52 0.0 0.0 0.00 0.00 0.00 84 1022.3
20210923035320 52 0.0 0.0 0.00 0.00 0.00 84 1022.3
20210923034818 52 0.0 0.0 0.00 0.00 0.00 84 1022.3
20210923034317 52 0.0 0.0 0.00 0.00 0.00 84 1022.3
20210923033817 52 0.0 0.0 0.00 0.00 0.00 83 1022.4
20210923033318 52 0.0 0.0 0.00 0.00 0.00 83 1022.4
20210923032818 52 0.0 0.0 0.00 0.00 0.00 83 1022.4
20210923032318 52 0.0 0.0 0.00 0.00 0.00 83 1022.4
20210923031817 53 0.0 0.0 0.00 0.00 0.00 82 1022.6
20210923031316 53 0.0 0.0 0.00 0.00 0.00 82 1022.6
20210923030817 53 0.0 0.0 0.00 0.00 0.00 82 1022.7
20210923030317 53 0.0 0.0 0.00 0.00 0.00 82 1022.7
20210923025817 53 0.0 0.0 0.00 0.00 0.00 82 1022.7
20210923025318 53 0.0 0.0 0.00 0.00 0.00 81 1022.8
20210923024817 53 0.0 0.0 0.00 0.00 0.00 81 1022.7
20210923024317 53 0.0 0.0 0.00 0.00 0.00 81 1022.7
20210923023819 53 0.0 0.0 0.00 0.00 0.00 81 1022.8
20210923023317 54 0.0 0.0 0.00 0.00 0.00 81 1022.8
20210923022817 54 0.0 0.0 0.00 0.00 0.00 80 1022.9
20210923022319 54 0.0 0.0 0.00 0.00 0.00 80 1022.9
20210923021817 54 0.0 0.0 0.00 0.00 0.00 79 1023.0
20210923021316 55 0.0 0.0 0.00 0.00 0.00 79 1022.9
20210923020817 55 0.0 0.0 0.00 0.00 0.00 78 1023.0
20210923020316 55 0.0 0.0 0.00 0.00 0.00 78 1023.0
20210923015817 55 0.0 0.0 0.00 0.00 0.00 78 1022.9
20210923015316 56 0.0 0.0 0.00 0.00 0.00 77 1022.9
20210923014818 56 0.0 0.0 0.00 0.00 0.00 77 1022.8
20210923014318 56 0.0 0.0 0.00 0.00 0.00 77 1022.9
20210923013817 56 0.0 0.0 0.00 0.00 0.00 77 1023.0
20210923013317 57 0.0 0.0 0.00 0.00 0.00 76 1023.0
20210923012815 57 0.0 0.0 0.00 0.00 0.00 76 1023.0
20210923012317 57 0.0 0.0 0.00 0.00 0.00 76 1022.9
20210923011759 58 0.0 0.0 0.00 0.00 0.00 75 1022.9
20210923011258 58 0.0 0.0 0.00 0.00 0.00 73 1023.0
20210923010810 58 0.0 0.0 0.00 0.00 0.00 73 1022.9
20210923010253 59 0.0 0.0 0.00 0.00 0.00 72 1022.9
20210923005741 59 0.0 0.0 0.00 0.00 0.00 72 1022.9
20210923005239 59 0.0 0.0 0.00 0.00 0.00 70 1022.9
20210923004731 60 0.0 0.0 0.00 0.00 0.00 70 1022.9
20210923004232 60 0.0 0.0 0.00 0.00 0.00 69 1023.0
20210923003731 60 0.0 0.0 0.00 0.00 0.00 68 1023.0
20210923003232 61 0.0 0.0 0.00 0.00 0.00 68 1023.0
20210923002731 61 0.0 0.0 0.00 0.00 0.00 68 1023.0
20210923002231 62 0.0 0.0 0.00 0.00 0.00 67 1023.1
20210923001732 62 0.0 0.0 0.00 0.00 0.00 67 1023.1
20210923001231 62 0.0 0.0 0.00 0.00 0.00 66 1023.1
20210923000732 63 0.0 0.0 0.00 0.00 0.00 66 1023.2
20210923000226 63 0.0 0.0 0.00 0.00 0.00 66 1023.2
20210922235721 63 0.0 0.0 0.00 0.00 0.00 64 1023.2
20210922235220 63 0.0 0.0 0.00 0.00 0.00 62 1023.2
20210922234718 63 0.0 0.0 0.00 0.00 0.00 62 1023.2
20210922234215 64 0.0 0.0 0.00 0.00 0.00 61 1023.2